1518678000.95,33290,8.13,72840.3,-9.77,-17.93,-18.89,0,*56
1518678002.2,33291,8.13,72842.3,-9.77,-17.93,-18.83,0,*5D
1518678003.43,33292,8.19,72846.8,-9.77,-18.07,-18.99,0,*57
1518678004.71,33293,8.13,72842.0,-9.73,-18.01,-18.93,0,*5E
1518678005.91,33294,8.13,72842.3,-9.75,-18.07,-18.99,0,*53
1518678007.16,33295,8.13,72840.5,-9.75,-18.01,-18.93,0,*5E
1518678008.36,33296,8.13,72842.5,-9.75,-18.11,-18.99,0,*56
1518678009.61,33297,8.13,72840.8,-9.75,-17.93,-18.93,0,*58
1518678010.83,33298,8.13,72840.5,-9.75,-18.01,-18.83,0,*52
1518678012.09,33299,8.13,72842.5,-9.75,-18.01,-18.93,0,*52
1518678013.34,33300,8.13,72844.5,-9.75,-18.01,-18.93,0,*53
1518678014.54,33301,8.13,72846.5,-9.75,-18.07,-18.99,0,*5E
1518678015.82,33302,8.13,72840.5,-9.73,-18.01,-18.93,0,*57
1518678017.04,33303,8.13,72842.8,-9.75,-17.93,-18.83,0,*55
1518678018.29,33304,8.13,72844.5,-9.73,-17.93,-18.83,0,*54
1518678019.51,33305,8.13,72840.5,-9.75,-17.93,-18.83,0,*53
1518678020.77,33306,8.13,72842.0,-9.73,-18.07,-18.93,0,*55
1518678022.01,33307,8.13,72844.8,-9.73,-18.01,-18.83,0,*53
1518678023.27,33308,8.13,72842.0,-9.73,-18.07,-18.93,0,*5B
1518678024.52,33309,8.13,72844.3,-9.73,-18.07,-18.93,0,*5A
1518678025.77,33310,8.13,72846.8,-9.73,-18.01,-18.99,0,*5E
1518678026.99,33311,8.13,72842.3,-9.73,-18.21,-19.03,0,*5F
1518678028.22,33312,8.13,72842.0,-9.73,-18.07,-18.99,0,*5A
1518678029.46,33313,8.13,72844.3,-9.71,-18.01,-18.89,0,*5E
1518678030.66,33314,8.13,72846.3,-9.71,-18.17,-19.07,0,*59
1518678031.85,33315,8.13,72844.0,-9.71,-18.17,-19.07,0,*58
1518678033.1,33316,8.19,72848.5,-9.71,-17.97,-18.89,0,*5B
1518678034.35,33317,8.13,72844.5,-9.71,-18.01,-18.89,0,*5A
1518678035.57,33318,8.19,72846.5,-9.67,-17.97,-18.79,0,*5D
1518678036.82,33319,8.13,72842.0,-9.71,-18.01,-18.89,0,*54
1518678038.04,33320,8.13,72844.0,-9.67,-18.01,-18.79,0,*56
1518678039.26,33321,8.13,72842.8,-9.71,-17.97,-18.79,0,*50
1518678040.51,33322,8.13,72842.3,-9.67,-18.01,-18.89,0,*5B
1518678041.73,33323,8.19,72844.0,-9.67,-18.01,-18.79,0,*55
1518678042.96,33324,8.13,72840.0,-9.71,-17.97,-18.73,0,*5F
1518678044.16,33325,8.19,72846.5,-9.67,-17.83,-18.79,0,*56
1518678045.38,33326,8.13,72844.8,-9.67,-17.97,-18.79,0,*50
1518678046.58,33327,8.13,72844.8,-9.67,-17.87,-18.79,0,*50
1518678047.83,33328,8.13,72844.0,-9.67,-17.97,-18.89,0,*51
1518678049.05,33329,8.13,72844.3,-9.67,-17.97,-18.79,0,*5F
1518678050.25,33330,8.13,72842.0,-9.67,-17.87,-18.79,0,*56
1518678051.47,33331,8.19,72844.5,-9.67,-17.97,-18.79,0,*56
1518678052.72,33332,8.19,72846.0,-9.67,-17.97,-18.89,0,*5A
1518678053.92,33333,8.19,72846.8,-9.67,-17.83,-18.79,0,*51
1518678055.17,33334,8.13,72840.0,-9.65,-17.79,-18.73,0,*5B
1518678056.39,33335,8.19,72844.3,-9.67,-17.87,-18.89,0,*5C
1518678057.64,33336,8.13,72840.5,-9.65,-18.11,-18.93,0,*56
1518678058.86,33337,8.13,72842.0,-9.65,-18.17,-19.03,0,*59
1518678060.11,33338,8.13,72840.3,-9.65,-18.17,-18.93,0,*5E
1518678061.36,33339,8.13,72840.5,-9.65,-17.93,-18.83,0,*5D
1518678062.59,33340,8.13,72840.3,-9.63,-17.97,-18.83,0,*51
1518678063.84,33341,8.13,72842.5,-9.65,-17.93,-18.73,0,*5D
1518678065.09,33342,8.19,72846.3,-9.65,-17.93,-18.73,0,*5E
1518678066.32,33343,8.13,72844.5,-9.65,-17.83,-18.69,0,*55
1518678067.54,33344,8.19,72844.8,-9.63,-17.79,-18.69,0,*51
1518678068.76,33345,8.13,72844.8,-9.63,-17.83,-18.59,0,*56
1518678069.99,33346,8.13,72840.5,-9.63,-17.93,-18.73,0,*5C
1518678071.25,33347,8.19,72844.8,-9.65,-17.93,-18.73,0,*5B
1518678072.48,33348,8.19,72846.3,-9.63,-17.97,-18.73,0,*56
1518678073.7,33349,8.19,72846.8,-9.63,-17.93,-18.83,0,*5C
1518678074.93,33350,8.13,72840.5,-9.61,-17.73,-18.65,0,*50
1518678076.17,33351,8.19,72844.5,-9.63,-17.79,-18.59,0,*56
1518678077.39,33352,8.13,72840.0,-9.63,-18.01,-18.83,0,*52
1518678078.61,33353,8.13,72842.0,-9.63,-18.17,-18.93,0,*55
1518678079.84,33354,8.13,72842.5,-9.63,-18.11,-18.93,0,*54
1518678081.06,33355,8.13,72842.8,-9.61,-18.07,-18.83,0,*51
1518678082.32,33356,8.19,72846.3,-9.61,-17.97,-18.83,0,*54
1518678083.58,33357,8.13,72840.3,-9.61,-17.97,-18.69,0,*51
1518678084.83,33358,8.13,72840.5,-9.61,-17.93,-18.69,0,*5A
1518678086.08,33359,8.13,72840.8,-9.61,-17.93,-18.79,0,*5A
1518678087.29,33360,8.13,72842.8,-9.59,-17.87,-18.69,0,*5F
1518678088.54,33361,8.13,72842.3,-9.61,-17.79,-18.65,0,*58
1518678089.79,33362,8.13,72842.3,-9.61,-17.79,-18.69,0,*57
1518678090.99,33363,8.13,72842.3,-9.59,-17.73,-18.65,0,*5B
1518678092.21,33364,8.13,72842.5,-9.59,-17.79,-18.79,0,*5B
1518678093.43,33365,8.19,72846.5,-9.59,-17.93,-18.79,0,*5E
1518678094.65,33366,8.19,72846.8,-9.59,-17.93,-18.83,0,*58
1518678095.85,33367,8.13,72842.3,-9.59,-17.87,-18.79,0,*59
1518678097.05,33368,8.13,72844.5,-9.59,-17.87,-18.79,0,*56
1518678098.26,33369,8.19,72846.3,-9.59,-17.87,-18.69,0,*56
1518678099.48,33370,8.13,72842.3,-9.59,-17.93,-18.79,0,*5A
1518678100.67,33371,8.13,72842.5,-9.59,-18.11,-18.99,0,*50
1518678101.9,33372,8.13,72844.8,-9.55,-18.01,-18.79,0,*50
1518678103.14,33373,8.13,72842.0,-9.57,-17.93,-18.79,0,*57
1518678104.37,33374,8.13,72842.8,-9.57,-17.83,-18.65,0,*5C
1518678105.58,33375,8.19,72846.5,-9.55,-17.83,-18.73,0,*58
1518678106.81,33376,8.13,72844.0,-9.57,-17.83,-18.65,0,*5E
1518678108.06,33377,8.19,72846.8,-9.57,-17.83,-18.59,0,*50
1518678109.28,33378,8.19,72846.5,-9.57,-17.83,-18.65,0,*50
1518678110.51,33379,8.13,72840.5,-9.55,-17.93,-18.83,0,*5A
1518678111.73,33380,8.13,72844.5,-9.55,-17.93,-18.79,0,*59
1518678112.98,33381,8.19,72846.3,-9.57,-17.93,-18.79,0,*5A
1518678114.18,33382,8.13,72842.0,-9.55,-17.87,-18.73,0,*54
1518678115.39,33383,8.19,72844.8,-9.55,-17.87,-18.73,0,*55
1518678116.62,33384,8.19,72846.5,-9.55,-17.93,-18.73,0,*57
1518678117.84,33385,8.19,72846.0,-9.55,-18.01,-18.79,0,*58
1518678119.07,33386,8.13,72840.8,-9.55,-17.93,-18.79,0,*5F
1518678120.29,33387,8.13,72842.3,-9.55,-17.93,-18.83,0,*5B
1518678121.54,33388,8.13,72844.8,-9.57,-18.01,-18.79,0,*57
1518678122.77,33389,8.13,72846.5,-9.53,-17.87,-18.73,0,*59
1518678124.0,33390,8.13,72844.8,-9.53,-17.87,-18.79,0,*5B
1518678125.23,33391,8.13,72842.5,-9.53,-17.87,-18.73,0,*50
1518678126.49,33392,8.13,72844.8,-9.53,-17.97,-18.73,0,*52
1518678127.72,33393,8.13,72844.8,-9.51,-17.97,-18.79,0,*5B
1518678128.94,33394,8.19,72844.3,-9.55,-18.01,-18.83,0,*5D
1518678130.16,33395,8.13,72840.8,-9.53,-17.87,-18.79,0,*5E
1518678131.39,33396,8.19,72844.8,-9.51,-17.97,-18.79,0,*5E
1518678132.64,33397,8.19,72848.3,-9.51,-18.01,-18.93,0,*5B
1518678133.87,33398,8.19,72844.3,-9.51,-17.97,-18.73,0,*5A
1518678135.07,33399,8.19,72846.3,-9.51,-17.83,-18.73,0,*5E
1518678136.32,33400,8.19,72844.3,-9.53,-17.83,-18.59,0,*53
1518678137.55,33401,8.19,72848.0,-9.51,-17.79,-18.73,0,*5D
1518678138.79,33402,8.13,72844.5,-9.53,-17.83,-18.59,0,*51
1518678140.02,33403,8.19,72846.5,-9.53,-17.83,-18.79,0,*52
1518678141.22,33404,8.19,72846.5,-9.51,-17.87,-18.79,0,*53
1518678142.42,33405,8.13,72846.5,-9.51,-17.87,-18.73,0,*58
1518678143.64,33406,8.13,72844.0,-9.51,-17.97,-18.79,0,*50
1518678144.89,33407,8.19,72846.5,-9.51,-17.97,-18.89,0,*5E
1518678146.14,33408,8.19,72846.0,-9.51,-18.01,-18.93,0,*5A
1518678147.37,33409,8.19,72846.5,-9.51,-17.97,-18.79,0,*5F
1518678148.57,33410,8.19,72846.3,-9.51,-17.87,-18.73,0,*5C
1518678149.77,33411,8.13,72846.3,-9.51,-17.87,-18.79,0,*57
1518678150.97,33412,8.19,72844.8,-9.51,-17.83,-18.73,0,*5A
1518678152.17,33413,8.19,72844.8,-9.51,-17.87,-18.79,0,*55
1518678153.36,33414,8.19,72846.5,-9.51,-17.87,-18.79,0,*52
1518678154.62,33415,8.19,72844.3,-9.49,-17.93,-18.73,0,*55
1518678155.88,33416,8.13,72844.0,-9.45,-17.97,-18.83,0,*51
1518678157.13,33417,8.19,72844.0,-9.49,-18.07,-18.89,0,*50
1518678158.35,33418,8.19,72848.0,-9.49,-18.11,-19.03,0,*5B
1518678159.57,33419,8.19,72844.3,-9.49,-18.21,-19.03,0,*59
1518678160.79,33420,8.19,72846.5,-9.49,-18.11,-18.99,0,*52
1518678162.04,33421,8.19,72850.0,-9.49,-18.07,-18.89,0,*55
1518678163.26,33422,8.19,72846.3,-9.49,-18.07,-19.03,0,*55
1518678164.48,33423,8.13,72844.3,-9.49,-18.07,-19.03,0,*54
1518678165.7,33424,8.19,72846.8,-9.49,-18.11,-19.03,0,*54
1518678166.9,33425,8.19,72844.3,-9.51,-18.17,-19.17,0,*5F
1518678168.15,33426,8.13,72842.3,-9.45,-18.21,-19.17,0,*5C
1518678169.37,33427,8.19,72844.0,-9.51,-18.41,-19.31,0,*5A
1518678170.6,33428,8.19,72844.0,-9.51,-18.45,-19.31,0,*51
1518678171.8,33429,8.19,72844.8,-9.51,-18.45,-19.37,0,*56
1518678173.0,33430,8.19,72846.8,-9.51,-18.45,-19.37,0,*5E
1518678174.23,33431,8.19,72846.8,-9.51,-18.55,-19.37,0,*5E
1518678175.43,33432,8.19,72844.0,-9.51,-18.45,-19.37,0,*5C
1518678176.68,33433,8.13,72842.5,-9.49,-18.49,-19.31,0,*5E
1518678177.88,33434,8.19,72844.8,-9.51,-18.45,-19.47,0,*5D
1518678179.11,33435,8.19,72844.5,-9.51,-18.55,-19.51,0,*5A
1518678180.33,33436,8.19,72846.3,-9.51,-18.59,-19.51,0,*55
1518678181.59,33437,8.19,72844.5,-9.53,-18.41,-19.31,0,*59
1518678182.81,33438,8.13,72846.5,-9.51,-18.59,-19.47,0,*5C
1518678184.03,33439,8.19,72844.8,-9.51,-18.59,-19.47,0,*5D
1518678185.26,33440,8.13,72846.5,-9.53,-18.69,-19.47,0,*52
1518678186.52,33441,8.19,72848.8,-9.53,-18.55,-19.37,0,*5B
1518678187.77,33442,8.19,72848.5,-9.53,-18.45,-19.31,0,*5F
1518678188.98,33443,8.19,72846.5,-9.51,-18.41,-19.37,0,*5E
1518678190.21,33444,8.19,72848.0,-9.53,-18.45,-19.37,0,*5F
1518678191.44,33445,8.19,72846.0,-9.55,-18.49,-19.41,0,*55
1518678192.67,33446,8.19,72846.3,-9.55,-18.49,-19.41,0,*56
1518678193.9,33447,8.19,72844.8,-9.57,-18.49,-19.37,0,*54
1518678195.13,33448,8.13,72844.3,-9.55,-18.45,-19.41,0,*54
1518678196.36,33449,8.19,72844.5,-9.55,-18.49,-19.41,0,*59
1518678197.59,33450,8.13,72844.5,-9.55,-18.49,-19.41,0,*51
1518678198.82,33451,8.19,72846.5,-9.55,-18.49,-19.41,0,*50
1518678200.07,33452,8.19,72846.8,-9.57,-18.49,-19.41,0,*51
1518678201.3,33453,8.19,72846.0,-9.55,-18.49,-19.41,0,*52
1518678202.54,33454,8.19,72844.5,-9.55,-18.73,-19.57,0,*5B
1518678203.77,33455,8.19,72848.3,-9.55,-18.83,-19.65,0,*54
1518678205.01,33456,8.19,72848.5,-9.55,-18.83,-19.57,0,*56
1518678206.23,33457,8.19,72844.8,-9.57,-18.73,-19.51,0,*5C
1518678207.5,33458,8.19,72848.0,-9.57,-18.73,-19.57,0,*55
1518678208.72,33459,8.19,72846.0,-9.57,-18.73,-19.51,0,*52
1518678209.98,33460,8.19,72848.3,-9.57,-18.73,-19.57,0,*5E
1518678211.21,33461,8.19,72844.8,-9.57,-18.79,-19.71,0,*51
1518678212.47,33462,8.19,72850.0,-9.57,-18.93,-19.75,0,*52
1518678213.67,33463,8.19,72848.3,-9.59,-18.83,-19.71,0,*58
1518678214.9,33464,8.19,72848.5,-9.61,-18.83,-19.75,0,*50
1518678216.11,33465,8.13,72846.5,-9.59,-18.83,-19.75,0,*5A
1518678217.34,33466,8.19,72850.3,-9.59,-18.89,-19.91,0,*59
1518678218.56,33467,8.19,72844.8,-9.59,-19.03,-19.81,0,*5A
1518678219.79,33468,8.19,72848.3,-9.59,-18.99,-19.81,0,*57
1518678221.05,33469,8.19,72848.0,-9.61,-18.99,-19.81,0,*5D
1518678222.25,33470,8.19,72848.5,-9.59,-18.83,-19.71,0,*5A
1518678223.51,33471,8.19,72848.5,-9.61,-18.79,-19.61,0,*54
1518678224.77,33472,8.19,72850.0,-9.61,-18.79,-19.61,0,*57
1518678226.02,33473,8.19,72848.8,-9.61,-19.03,-19.81,0,*54
1518678227.23,33474,8.13,72844.0,-9.63,-19.07,-19.95,0,*50
1518678228.46,33475,8.13,72844.5,-9.61,-19.03,-19.91,0,*53
1518678229.72,33476,8.13,72846.3,-9.61,-18.99,-19.81,0,*53
1518678230.95,33477,8.19,72852.0,-9.61,-18.83,-19.75,0,*52
1518678232.18,33478,8.19,72850.8,-9.61,-18.83,-19.75,0,*5D
1518678233.43,33479,8.19,72850.3,-9.63,-18.93,-19.81,0,*54
1518678234.71,33480,8.19,72846.0,-9.65,-18.93,-19.81,0,*54
1518678235.94,33481,8.19,72844.5,-9.65,-19.03,-19.95,0,*58
1518678237.15,33482,8.19,72848.3,-9.63,-19.03,-19.95,0,*5D
1518678238.38,33483,8.19,72850.5,-9.65,-19.07,-19.95,0,*5E
1518678239.61,33484,8.19,72844.5,-9.65,-19.07,-20.09,0,*56
1518678240.85,33485,8.19,72844.8,-9.65,-19.17,-20.09,0,*56
1518678242.08,33486,8.19,72846.5,-9.65,-19.17,-19.99,0,*56
1518678243.32,33487,8.13,72846.8,-9.67,-19.13,-20.19,0,*53
1518678244.55,33488,8.19,72846.0,-9.67,-19.23,-20.05,0,*52
1518678245.78,33489,8.19,72844.8,-9.67,-19.23,-20.05,0,*53
1518678247.03,33490,8.19,72850.5,-9.71,-19.23,-20.15,0,*5D
1518678248.29,33491,8.19,72848.3,-9.71,-19.23,-20.19,0,*50
1518678249.55,33492,8.19,72848.3,-9.73,-19.31,-20.25,0,*5D
1518678250.81,33493,8.13,72842.3,-9.71,-19.23,-20.19,0,*52
1518678252.06,33494,8.19,72848.5,-9.71,-19.23,-20.15,0,*59
1518678253.35,33495,8.19,72846.3,-9.73,-19.27,-20.19,0,*52
1518678254.62,33496,8.19,72846.5,-9.73,-19.27,-20.25,0,*5E
1518678255.84,33497,8.19,72848.3,-9.75,-19.13,-20.09,0,*50
1518678257.05,33498,8.19,72844.3,-9.75,-19.17,-20.05,0,*57
1518678258.26,33499,8.19,72846.8,-9.75,-19.17,-20.05,0,*56
1518678259.47,33500,8.19,72844.3,-9.75,-19.17,-20.09,0,*5B
1518678260.68,33501,8.19,72846.3,-9.75,-19.17,-20.09,0,*5A
1518678261.94,33502,8.19,72846.3,-9.75,-19.31,-20.35,0,*52
1518678263.19,33503,8.19,72846.8,-9.73,-19.47,-20.35,0,*54
1518678264.44,33504,8.19,72846.0,-9.77,-19.51,-20.39,0,*5C
1518678265.66,33505,8.19,72848.5,-9.79,-19.51,-20.39,0,*53
1518678266.87,33506,8.19,72848.8,-9.79,-19.47,-20.43,0,*5A
1518678268.08,33507,8.19,72844.0,-9.79,-19.51,-20.43,0,*5C
1518678269.33,33508,8.19,72848.8,-9.77,-19.37,-20.39,0,*50
1518678270.6,33509,8.19,72848.0,-9.79,-19.61,-20.53,0,*50
1518678271.84,33510,8.13,72844.8,-9.79,-19.61,-20.43,0,*59
1518678273.08,33511,8.19,72844.5,-9.81,-19.57,-20.59,0,*51
1518678274.34,33512,8.19,72850.5,-9.81,-19.57,-20.49,0,*53
1518678275.58,33513,8.19,72844.0,-9.83,-19.51,-20.43,0,*5C
1518678276.82,33514,8.19,72850.3,-9.83,-19.37,-20.43,0,*5B
1518678278.05,33515,8.19,72848.0,-9.83,-19.37,-20.43,0,*5A
1518678279.29,33516,8.19,72850.3,-9.83,-19.37,-20.43,0,*59
1518678280.55,33517,8.19,72848.3,-9.83,-19.37,-20.35,0,*59
1518678281.79,33518,8.19,72848.3,-9.83,-19.37,-20.43,0,*57
1518678283.04,33519,8.19,72848.0,-9.83,-19.37,-20.35,0,*57
1518678284.28,33520,8.19,72850.3,-9.85,-19.41,-20.39,0,*56
1518678285.52,33521,8.19,72844.8,-9.85,-19.41,-20.39,0,*57
1518678286.78,33522,8.19,72846.8,-9.87,-19.31,-20.25,0,*5C
1518678288.05,33523,8.19,72848.5,-9.87,-19.31,-20.25,0,*5D
1518678289.32,33524,8.19,72846.3,-9.87,-19.27,-20.25,0,*5D
1518678290.58,33525,8.19,72850.0,-9.85,-19.31,-20.35,0,*58
1518678291.84,33526,8.19,72848.5,-9.87,-19.41,-20.39,0,*52
1518678293.06,33527,8.19,72848.5,-9.89,-19.51,-20.43,0,*51
1518678294.28,33528,8.19,72846.3,-9.89,-19.51,-20.43,0,*5E
1518678295.52,33529,8.19,72848.5,-9.89,-19.61,-20.43,0,*5C
1518678296.76,33530,8.19,72850.8,-9.91,-19.47,-20.43,0,*59
1518678298.0,33531,8.19,72850.5,-9.91,-19.51,-20.43,0,*5F
1518678299.21,33532,8.19,72848.3,-9.89,-19.47,-20.43,0,*52
1518678300.45,33533,8.19,72846.3,-9.91,-19.51,-20.43,0,*5D
1518678301.75,33534,8.19,72848.3,-9.91,-19.61,-20.53,0,*58
1518678303.01,33535,8.19,72848.3,-9.91,-19.51,-20.53,0,*5A
1518678304.28,33536,8.19,72854.0,-9.95,-19.57,-20.59,0,*51
1518678305.54,33537,8.19,72850.3,-9.95,-19.65,-20.59,0,*51
1518678306.81,33538,8.19,72850.8,-9.95,-19.57,-20.59,0,*5F
1518678308.06,33539,8.19,72848.8,-9.97,-19.57,-20.59,0,*5C
1518678309.33,33540,8.19,72850.5,-9.97,-19.57,-20.49,0,*53
1518678310.55,33541,8.19,72850.3,-9.97,-19.51,-20.43,0,*5E
1518678311.77,33542,8.19,72848.0,-9.97,-19.51,-20.43,0,*5D
1518678312.99,33543,8.19,72848.3,-9.97,-19.51,-20.43,0,*5C
1518678314.23,33544,8.19,72854.5,-9.97,-19.51,-20.35,0,*5A
1518678315.46,33545,8.19,72850.8,-9.95,-19.51,-20.43,0,*58
1518678316.7,33546,8.19,72850.8,-9.97,-19.51,-20.35,0,*58
1518678318.0,33547,8.19,72850.0,-9.99,-19.57,-20.53,0,*51
1518678319.25,33548,8.19,72848.8,-10.01,-19.61,-20.63,0,*61
1518678320.53,33549,8.19,72850.8,-10.01,-19.61,-20.49,0,*68
1518678321.8,33550,8.19,72848.5,-10.01,-19.57,-20.53,0,*6E
1518678323.08,33551,8.19,72852.8,-10.01,-19.61,-20.49,0,*61
1518678324.36,33552,8.19,72848.5,-10.01,-19.57,-20.49,0,*67
1518678325.61,33553,8.19,72848.3,-10.01,-19.57,-20.39,0,*61
1518678326.89,33554,8.19,72852.3,-10.01,-19.57,-20.49,0,*61
1518678328.14,33555,8.19,72852.5,-10.01,-19.61,-20.63,0,*6D
1518678329.42,33556,8.19,72852.3,-10.01,-19.61,-20.53,0,*6D
1518678330.7,33557,8.19,72850.0,-10.01,-19.57,-20.49,0,*62
1518678331.97,33558,8.19,72848.8,-10.03,-19.61,-20.43,0,*60
1518678333.24,33559,8.19,72852.3,-10.05,-19.65,-20.49,0,*69
1518678334.49,33560,8.19,72846.3,-10.05,-19.65,-20.59,0,*62
1518678335.71,33561,8.19,72848.3,-10.05,-19.71,-20.59,0,*66
1518678336.99,33562,8.19,72852.5,-10.05,-19.65,-20.49,0,*61
1518678338.23,33563,8.19,72852.3,-10.05,-19.65,-20.43,0,*6A
1518678339.48,33564,8.19,72848.8,-10.07,-19.71,-20.59,0,*61
1518678340.75,33565,8.19,72852.3,-10.07,-19.65,-20.59,0,*65
1518678342.03,33566,8.19,72852.0,-10.07,-19.65,-20.59,0,*66
1518678343.33,33567,8.19,72852.0,-10.07,-19.57,-20.49,0,*67
1518678344.61,33568,8.19,72850.8,-10.09,-19.57,-20.49,0,*66
1518678345.89,33569,8.19,72850.5,-10.09,-19.65,-20.49,0,*66
1518678347.14,33570,8.19,72848.5,-10.09,-19.71,-20.49,0,*6B
1518678348.42,33571,8.19,72850.3,-10.09,-19.65,-20.49,0,*6F
1518678349.67,33572,8.19,72848.3,-10.09,-19.65,-20.59,0,*6D
1518678350.93,33573,8.19,72848.8,-10.09,-19.65,-20.59,0,*6C
1518678352.17,33574,8.19,72852.5,-10.09,-19.81,-20.63,0,*68
1518678353.41,33575,8.19,72848.3,-10.13,-19.71,-20.69,0,*67
1518678354.62,33576,8.19,72852.3,-10.15,-19.75,-20.59,0,*65
1518678355.84,33577,8.19,72848.5,-10.15,-19.75,-20.59,0,*64
1518678357.11,33578,8.19,72850.0,-10.13,-19.71,-20.53,0,*63
1518678358.32,33579,8.19,72848.0,-10.15,-19.75,-20.69,0,*69
1518678359.55,33580,8.19,72852.0,-10.15,-19.81,-20.73,0,*6F
1518678360.76,33581,8.19,72848.5,-10.15,-19.75,-20.73,0,*65
1518678361.99,33582,8.19,72852.3,-10.19,-19.81,-20.73,0,*61
1518678363.21,33583,8.19,72850.8,-10.19,-19.75,-20.69,0,*60
1518678364.43,33584,8.19,72852.0,-10.15,-19.81,-20.69,0,*60
1518678365.69,33585,8.19,72850.3,-10.21,-19.81,-20.73,0,*6D
1518678366.94,33586,8.19,72854.5,-10.19,-19.65,-20.59,0,*67
1518678368.2,33587,8.19,72852.8,-10.21,-19.81,-20.63,0,*6E
1518678369.47,33588,8.19,72850.8,-10.21,-19.85,-20.89,0,*61
1518678370.75,33589,8.19,72850.3,-10.21,-19.85,-20.79,0,*6F
1518678372.04,33590,8.19,72852.3,-10.21,-19.85,-20.79,0,*67
1518678373.32,33591,8.19,72850.3,-10.21,-19.85,-20.79,0,*66
1518678374.57,33592,8.19,72852.8,-10.21,-19.95,-20.89,0,*6B
1518678375.83,33593,8.19,72854.0,-10.23,-19.85,-20.79,0,*66
1518678377.06,33594,8.19,72854.0,-10.23,-19.81,-20.63,0,*6E
1518678378.35,33595,8.19,72852.8,-10.25,-19.85,-20.79,0,*66
1518678379.61,33596,8.19,72848.8,-10.25,-19.85,-20.69,0,*64
1518678380.9,33597,8.19,72854.8,-10.25,-19.85,-20.79,0,*64
1518678382.13,33598,8.19,72852.0,-10.25,-19.75,-20.69,0,*65
1518678383.37,33599,8.19,72850.8,-10.25,-19.75,-20.69,0,*64
1518678384.62,33600,8.19,72850.3,-10.25,-19.71,-20.63,0,*69
1518678385.86,33601,8.19,72852.0,-10.25,-19.75,-20.69,0,*66
1518678387.09,33602,8.19,72854.5,-10.27,-19.91,-20.79,0,*6C
1518678388.31,33603,8.19,72852.5,-10.27,-19.91,-20.93,0,*69
1518678389.57,33604,8.19,72852.3,-10.27,-19.85,-20.83,0,*6A
1518678390.81,33605,8.19,72852.8,-10.27,-19.91,-20.83,0,*6E
1518678392.05,33606,8.19,72850.3,-10.29,-19.91,-20.73,0,*6C
1518678393.29,33607,8.19,72852.5,-10.27,-19.85,-20.69,0,*6D
1518678394.54,33608,8.19,72852.8,-10.29,-19.95,-20.89,0,*63
1518678395.77,33609,8.19,72852.0,-10.31,-19.95,-20.89,0,*6B
1518678396.99,33610,8.19,72856.0,-10.31,-19.91,-20.89,0,*67
1518678398.23,33611,8.19,72852.5,-10.31,-19.95,-20.79,0,*6D
1518678399.47,33612,8.19,72852.8,-10.31,-19.91,-20.83,0,*6F
1518678400.73,33613,8.19,72852.5,-10.33,-19.95,-20.79,0,*6D
1518678402.0,33614,8.19,72852.5,-10.33,-19.95,-20.79,0,*6A
1518678403.27,33615,8.19,72850.8,-10.33,-19.85,-20.89,0,*65
1518678404.56,33616,8.19,72854.3,-10.33,-19.85,-20.79,0,*69
1518678405.83,33617,8.19,72852.8,-10.33,-19.85,-20.89,0,*67
1518678407.08,33618,8.19,72852.3,-10.33,-19.95,-20.89,0,*69
1518678408.31,33619,8.19,72852.3,-10.35,-19.95,-20.89,0,*6E
1518678409.56,33620,8.19,72850.0,-10.37,-19.99,-20.93,0,*61
1518678410.78,33621,8.19,72852.5,-10.35,-19.95,-20.89,0,*65
1518678412.03,33622,8.19,72852.0,-10.37,-19.99,-20.93,0,*63
1518678413.27,33623,8.19,72852.5,-10.35,-19.95,-20.79,0,*68
1518678414.54,33624,8.19,72854.5,-10.37,-19.99,-20.83,0,*64
1518678415.79,33625,8.19,72858.3,-10.37,-19.99,-20.93,0,*64
1518678417.06,33626,8.19,72856.0,-10.37,-19.99,-20.83,0,*66
1518678418.35,33627,8.19,72854.5,-10.37,-19.85,-20.83,0,*6A
1518678419.59,33628,8.19,72852.8,-10.43,-19.95,-20.89,0,*6D
1518678420.84,33629,8.19,72854.0,-10.41,-19.95,-20.89,0,*6E
1518678422.09,33630,8.19,72854.8,-10.43,-19.91,-20.83,0,*6A
1518678423.34,33631,8.19,72852.3,-10.41,-19.95,-20.73,0,*62
1518678424.59,33632,8.19,72854.5,-10.43,-19.95,-20.83,0,*6C
1518678425.82,33633,8.19,72848.8,-10.43,-19.95,-20.89,0,*67
1518678427.05,33634,8.19,72852.3,-10.43,-19.95,-20.89,0,*60
1518678428.3,33635,8.19,72852.0,-10.45,-19.95,-20.83,0,*6D
1518678429.54,33636,8.19,72854.8,-10.45,-19.95,-20.83,0,*6E
1518678430.78,33637,8.19,72852.0,-10.45,-19.91,-20.83,0,*6B
1518678432.03,33638,8.19,72852.0,-10.47,-19.99,-20.89,0,*64
1518678433.25,33639,8.19,72848.5,-10.45,-19.95,-20.89,0,*6B
1518678434.49,33640,8.19,72852.5,-10.45,-19.99,-20.79,0,*66
1518678435.75,33641,8.19,72854.0,-10.47,-19.95,-20.79,0,*69
1518678437.0,33642,8.19,72854.3,-10.47,-19.95,-20.89,0,*65
1518678438.25,33643,8.19,72852.8,-10.47,-19.99,-20.89,0,*68
1518678439.51,33644,8.19,72852.8,-10.47,-19.99,-21.03,0,*6C
1518678440.77,33645,8.19,72848.8,-10.47,-19.99,-21.03,0,*6D
1518678441.99,33646,8.19,72854.0,-10.49,-19.99,-20.93,0,*68
1518678443.22,33647,8.19,72854.0,-10.49,-19.95,-20.89,0,*6E
1518678444.48,33648,8.19,72852.8,-10.51,-20.05,-20.83,0,*61
1518678445.72,33649,8.19,72856.0,-10.51,-19.99,-20.93,0,*6E
1518678446.99,33650,8.19,72852.0,-10.51,-19.99,-20.83,0,*67
1518678448.26,33651,8.19,72854.3,-10.51,-19.99,-20.83,0,*66
1518678449.51,33652,8.19,72854.0,-10.51,-19.99,-20.93,0,*64
1518678450.74,33653,8.19,72852.3,-10.51,-20.05,-20.93,0,*6A
1518678451.99,33654,8.19,72854.0,-10.51,-19.99,-20.93,0,*62
1518678453.23,33655,8.19,72856.5,-10.51,-20.05,-20.93,0,*6C
1518678454.46,33656,8.19,72852.3,-10.55,-20.25,-21.13,0,*60
1518678455.75,33657,8.19,72852.0,-10.55,-20.19,-21.03,0,*6F
1518678456.99,33658,8.19,72856.8,-10.53,-20.05,-20.83,0,*62
1518678458.21,33659,8.19,72856.8,-10.53,-19.99,-20.93,0,*6D
1518678459.46,33660,8.19,72856.0,-10.55,-20.05,-20.89,0,*65
1518678460.72,33661,8.19,72852.8,-10.55,-19.95,-20.83,0,*6D
1518678462.0,33662,8.19,72854.0,-10.55,-19.95,-20.83,0,*6E
1518678463.26,33663,8.19,72856.3,-10.55,-19.91,-20.79,0,*6E
1518678464.5,33664,8.19,72854.3,-10.55,-19.91,-20.69,0,*68
1518678465.77,33665,8.19,72852.3,-10.55,-19.95,-20.83,0,*69
1518678467.04,33666,8.19,72856.0,-10.55,-19.95,-20.83,0,*6A
1518678468.26,33667,8.19,72852.0,-10.57,-20.09,-20.89,0,*6C
1518678469.48,33668,8.19,72854.5,-10.57,-20.05,-20.89,0,*6F
1518678470.77,33669,8.19,72852.3,-10.59,-20.15,-21.03,0,*62
1518678471.99,33670,8.19,72856.5,-10.57,-20.09,-20.89,0,*6A
1518678473.24,33671,8.19,72854.8,-10.57,-19.95,-20.83,0,*6E
1518678474.48,33672,8.19,72854.5,-10.59,-19.99,-20.93,0,*6E
1518678475.72,33673,8.19,72852.0,-10.59,-20.09,-20.93,0,*6C
1518678477.01,33674,8.19,72854.3,-10.63,-20.15,-20.99,0,*65
1518678478.27,33675,8.19,72852.5,-10.65,-20.19,-20.99,0,*6E
1518678479.56,33676,8.19,72854.8,-10.63,-20.15,-20.99,0,*67
1518678480.79,33677,8.19,72854.3,-10.65,-20.05,-20.99,0,*61
1518678482.03,33678,8.19,72858.0,-10.63,-19.99,-20.93,0,*6D
1518678483.26,33679,8.19,72856.0,-10.65,-19.99,-20.89,0,*61
1518678484.5,33680,8.19,72856.5,-10.65,-19.99,-20.79,0,*68
1518678485.73,33681,8.19,72852.5,-10.65,-19.99,-20.89,0,*66
1518678486.97,33682,8.19,72856.3,-10.65,-19.99,-20.79,0,*6A
1518678488.2,33683,8.19,72856.5,-10.63,-20.05,-20.93,0,*66
1518678489.41,33684,8.19,72856.0,-10.65,-20.05,-20.93,0,*67
1518678490.63,33685,8.19,72856.3,-10.65,-20.05,-20.93,0,*66
1518678491.87,33686,8.19,72856.3,-10.67,-20.05,-20.89,0,*6C
1518678493.11,33687,8.19,72852.8,-10.67,-20.05,-20.89,0,*6D
1518678494.33,33688,8.19,72854.3,-10.65,-20.05,-20.93,0,*6B
1518678495.54,33689,8.19,72856.0,-10.65,-20.05,-20.93,0,*6A
1518678496.77,33690,8.19,72852.3,-10.69,-20.09,-20.99,0,*68
1518678498.01,33691,8.19,72852.3,-10.69,-20.09,-21.03,0,*6B
1518678499.24,33692,8.19,72854.5,-10.69,-20.05,-20.99,0,*66
1518678500.48,33693,8.19,72852.5,-10.69,-20.09,-20.99,0,*6B